Regional Weather Roundup
Issued by NWS

Home | Current Version | Previous Version | Graphics & Text | Print | Product List | Glossary On
Versions: 1 2 3 4 5 6 7 8 9 10 11 12 13 14 15 16 17 18 19 20 21 22 23 24 25 26 27 28 29 30 31 32 33 34 35 36 37 38 39 40 41 42 43 44 45 46 47 48 49 50
000
ASUS45 KBOU 281107
RWRCO

WEATHER ROUNDUP FOR COLORADO
NATIONAL WEATHER SERVICE DENVER/BOULDER CO
500 AM MDT THU AUG 28 2014

NOTE: "FAIR" INDICATES FEW OR NO CLOUDS BELOW 12000 FEET WITH NO
SIGNIFICANT WEATHER AND/OR OBSTRUCTIONS TO VISIBILITY.

COZ001>005-013-030-031-281200-
...NORTHWEST COLORADO...

CITY           SKY/WX    TMP DP  RH WIND       PRES   REMARKS
CRAIG          RAIN      52  50  93 W3        30.28S FOG
HAYDEN         CLOUDY    50  46  87 W10       30.28S
MEEKER         LGT RAIN  52  49  89 W5        30.29S
MOUNT WERNER   NOT AVBL
STEAMBOAT SPGS CLOUDY    49  48  98 SW5       30.29R
WALDEN         CLOUDY    45  43  93 CALM      30.31S
$$

COZ006>008-011-281200-
...WEST CENTRAL VALLEYS...

CITY           SKY/WX    TMP DP  RH WIND       PRES   REMARKS
GRAND JUNCTION LGT RAIN  56  55  97 E5        30.23S
MONTROSE       CLOUDY    54  50  86 SE8       30.29F
EAGLE          CLOUDY    52  48  87 CALM      30.30S
RIFLE          CLOUDY    54  53  97 CALM      30.26S
DELTA          RAIN      56  52  86 CALM      30.26S
NUCLA          NOT AVBL
$$

COZ017>023-064>068-281200-
...SOUTHWEST COLORADO...

CITY           SKY/WX    TMP DP  RH WIND       PRES   REMARKS
DURANGO        PTCLDY    42  41  96 CALM      30.30F
CORTEZ         CLEAR     44  43  96 CALM      30.29S
PAGOSA SPRINGS PTCLDY    44  41  91 CALM      30.34S
TELLURIDE      CLOUDY    45  45 100 CALM      30.41F
WOLF CREEK PAS MOCLDY    32  32 100 SW13      30.51F WCI  22
$$

COZ009-010-012-014-032>034-037-058>063-281200-
...CENTRAL COLORADO...

CITY           SKY/WX    TMP DP  RH WIND       PRES   REMARKS
ASPEN          CLOUDY    48  46  93 CALM      30.32F
BUENA VISTA    MOCLDY    46  38  75 CALM      30.30R
COPPER MTN     MIX PCPN  37  34  87 W17       30.48F VSB<1/4
BERTHOUD PASS  FOG       32  30  93 N21G28    30.48F VSB<1/4 WCI  20
COTTONWOOD PAS MOCLDY    48  36  61 NW9G17    30.37S
GUNNISON       CLOUDY    48  43  81 CALM      30.35S
KREMMLING      CLOUDY    52  43  71 CALM      30.31S
LEADVILLE      LGT RAIN  40  38  93 NE5       30.38S
MONARCH PASS   FOG       34  32  93 W20       30.58F VSB<1/4 WCI  22
SALIDA         MOCLDY    54  39  58 W3        30.35S
SUNLIGHT       FOG       41  41 100 CALM      30.46S VSB 1/4
WILKERSON PASS NOT AVBL
$$

COZ069>075-281200-
...SAN LUIS VALLEY/SANGRE DE CRISTO MOUNTAINS...

CITY           SKY/WX    TMP DP  RH WIND       PRES   REMARKS
ALAMOSA        CLOUDY    42  38  85 SW3       30.31S
LA VETA PASS   NOT AVBL
SAGUACHE       CLOUDY    45  41  87 NW6       30.33S
$$

COZ035-036-038>040-281200-
...NORTHERN COLORADO FRONT RANGE...

CITY           SKY/WX    TMP DP  RH WIND       PRES   REMARKS
DENVER INTL AP PTCLDY    54  50  86 S13       30.13F
DMNS CITY PARK   N/A     53  48  82 SW9       30.13F
AURORA         PTCLDY    52  51  94 S9        30.15F
FRONT RANGE AP CLEAR     54  52  94 S6        30.14F
ERIE MUNI ARPT PTCLDY    52  50  93 S3        30.12F
BOULDER MUN AP PTCLDY    54  50  87 S3        30.12S
CENTENNIAL     PTCLDY    50  46  86 S6        30.16F
BROOMFIELD     PTCLDY    52  48  87 SW3       30.14F
FORT COLLINS   PTCLDY    54  50  87 NW6       30.13S
LONGMONT       PTCLDY    53  50  89 CALM      30.13S
$$

COZ041-046-047-076>085-087-088-281200-
...PIKES PEAK/PALMER DIVIDE AND SOUTHERN FOOTHILLS...

CITY           SKY/WX    TMP DP  RH WIND       PRES   REMARKS
COLO. SPRINGS  PTCLDY    53  47  79 N5        30.20S
A. F. ACADEMY  CLEAR     46  44  91 NE8       30.21S
ELLICOTT       CLEAR     48  47  96 N6        30.17F
FALCON         CLEAR     51  45  79 N7        30.22F
FORT CARSON    CLEAR     51  46  83 NW9       30.17S
LIMON          CLEAR     52  51  97 W9        30.12F
MONUMENT HILL  CLEAR     45  43  93 CALM      30.22F
TRINIDAD       CLEAR     52  43  71 W6        30.18F
$$

COZ042>045-048>051-090-091-281200-
...NORTHEAST COLORADO...

CITY           SKY/WX    TMP DP  RH WIND       PRES   REMARKS
GREELEY ARPT   CLEAR     50  43  76 NW5       30.11S
AKRON          CLEAR     56  54  93 W8        30.07R
BURLINGTON     CLOUDY    58  56  93 W5        30.04R
WRAY             N/A    N/A N/A N/A W6        30.02R
STERLING       CLEAR     61  59  94 NW9       30.02F
HOLYOKE        PTCLDY    59  57  94 W8        30.01F
FORT MORGAN    CLEAR     54  50  86 NW9       30.08S
$$

COZ086-089-092>099-281200-
...SOUTHEAST COLORADO...

CITY           SKY/WX    TMP DP  RH WIND       PRES   REMARKS
PUEBLO         CLEAR     55  50  83 W3        30.12F
LA JUNTA       CLEAR     58  54  86 W10       30.09S
LAMAR          MOCLDY    60  57  89 W8        30.04R
SPRINGFIELD      N/A     58  55  90 NW10      30.06S
$$


USA.gov is the U.S. government's official web portal to all federal, state and local government web resources and services.